Showing default

INTELSAT 11 (PAS 11), 32253

Orbit data source: Space-Track

INTELSAT 11 (PAS 11), 32253 is a payload satellite owned by Intelsat Ltd (US) (US) in GEO that was launched on Fri, 05 Oct 2007 UTC via an ARIANE 5GS launch vehicle from the French Guiana (FRGUI). Payload-class satellites include a variety of spacecraft equipped with specific instruments for various scientific and technological missions. These include communications satellites like Starlink; space stations such as the ISS; scientific satellites like the Hubble; Earth observation satellites from companies like Planet Labs, Umbra, and HawkEye 360; GPS; miniature CubeSats for education and research; and military/defense satellites.

Loading next visibility...
Identifier
32253, 2007-044B
Orbit
GEO
Country
Flag of UnknownUnknown / ITSO
Related business
Manufacturer
OSC
Mission
On reserve Commercial Communications
Bus & Motor
OSC STAR 2.4, BT-4
Mass
2,450 kg wet, 1,145 kg dry
Launch date (UTC)
2007-10-05 (18 years ago)
Launch vehicle
ARIANE 5GS
Launch site
French Guiana (FRGUI)
Object type
Payload
Rocket body
Debris
Shape & HBR
Box + 2 Pan, Unknown HBR
Radar Cross Section
24.482 m², Large (>1 m²)

Expand to show TLE details & history
Last TLE update: 21 hours ago

TLE from 21 hours ago
0 INTELSAT 11 (PAS 11)
1 32253U 07044B   25260.20349150  .00000042  00000-0  00000-0 0  9995
2 32253   2.8493  82.0259 0007900 121.5196 112.3149  0.99047793 65741
Epoch: 2025-09-17T04:53Z
TLE epoch observation values (Epoch: 2025-09-17T04:53:01.665Z)
Latitude
-2.29434°
Longitude
-113.73151°
Altitude
36,146.01 km
Speed
3.061 km/s
True Right ascension
21h 03m 37s
True Declination
-2° 17' 31"
Sunlit
Object was in daylight at epoch
Visualization orbit readout
Latitude
Unknown
Longitude
Unknown
Altitude
Unknown
Speed
Unknown
Apparent Right ascension
Unknown
Apparent Declination
Unknown
Sunlit
N/A
Visualization observer readout
Local Sidereal Time
18:46:52
Azimuth
Unknown
Elevation
Unknown
Doppler factor
Unknown
Orbital elements
Apogee altitude
36,167.896 km
Perigee altitude
36,100.726 km
Semi-major axis
42,512.448 km
Eccentricity
0.00079
Inclination
2.8493°
RAAN
82.0259°
Arg. of periapsis
121.5196°
True anomaly
112.39862°
Mean anomaly
112.3149°
Eccentric anomaly
112.35676°
Mean motion
0.24761 °/min
Orbital period
1,453.9 mins
BSTAR
0
Loading maneuver chart data...
Computing Atmospheric mass density...
Loading historical data...
Loading historical data...
Loading historical data...
Loading historical data...
Loading historical data...
Loading historical data...
Loading historical data...
Other satellites on launch #44 in the year 2007 (2007-10-05 UTC)

Documentation

Showing up to 5 results
|